QPF
0.00 0.00 0.00 0.00 0.00 0.01 0.02 0.03 0.03 0.02 0.01 0.01 0.00 0.00 0.00 0.00 0.00 0.00 0.01 0.01 0.01 0.01 0.01 0.01 0.01 0.00 0.00 0.00 0.00 0.01 0.01 0.02 0.03 0.05 0.07 0.07 0.09 0.08 0.07 0.09 0.11 0.08 0.08
0.00 0.00 0.00 0.00 0.00 0.01 0.02 0.03 0.03 0.02 0.01 0.01 0.00 0.00 0.00 0.00 0.00 0.00 0.01 0.01 0.01 0.00 0.01 0.01 0.01 0.01 0.00 0.00 0.00 0.01 0.02 0.03 0.05 0.07 0.11 0.11 0.09 0.08 0.08 0.10 0.12 0.08 0.06
0.00 0.00 0.00 0.00 0.00 0.01 0.02 0.02 0.03 0.02 0.01 0.00 0.00 0.00 0.00 0.00 0.00 0.00 0.01 0.00 0.01 0.01 0.01 0.01 0.01 0.01 0.01 0.00 0.00 0.01 0.02 0.04 0.09 0.19 0.26 0.19 0.08 0.06 0.07 0.09 0.10 0.07 0.07
0.00 0.00 0.00 0.00 0.01 0.01 0.02 0.03 0.03 0.02 0.01 0.01 0.00 0.00 0.00 0.00 0.00 0.01 0.01 0.00 0.00 0.00 0.00 0.01 0.01 0.00 0.00 0.00 0.00 0.01 0.02 0.05 0.11 0.33 0.32 0.17 0.07 0.05 0.06 0.05 0.06 0.07 0.08
0.00 0.00 0.00 0.00 0.01 0.01 0.02 0.02 0.03 0.02 0.01 0.01 0.01 0.00 0.00 0.00 0.00 0.00 0.01 0.00 0.00 0.00 0.00 0.01 0.00 0.00 0.00 0.00 0.01 0.02 0.02 0.05 0.13 0.27 0.20 0.17 0.09 0.03 0.04 0.04 0.05 0.06 0.07
0.00 0.00 0.00 0.00 0.01 0.01 0.02 0.02 0.02 0.02 0.01 0.01 0.01 0.01 0.00 0.00 0.00 0.00 0.00 0.00 0.00 0.00 0.00 0.00 0.00 0.00 0.00 0.00 0.01 0.02 0.02 0.06 0.15 0.14 0.10 0.14 0.07 0.03 0.04 0.04 0.05 0.05 0.06
0.00 0.00 0.00 0.00 0.01 0.02 0.02 0.02 0.03 0.03 0.02 0.02 0.02 0.01 0.01 0.01 0.00 0.00 0.00 0.00 0.00 0.00 0.00 0.00 0.00 0.00 0.00 0.00 0.01 0.01 0.03 0.06 0.11 0.06 0.09 0.12 0.06 0.03 0.03 0.05 0.05 0.04 0.05
0.01 0.00 0.00 0.00 0.01 0.03 0.03 0.03 0.03 0.03 0.02 0.02 0.01 0.01 0.01 0.01 0.01 0.01 0.00 0.00 0.00 0.00 0.00 0.00 0.00 0.00 0.00 0.00 0.00 0.01 0.02 0.05 0.05 0.03 0.06 0.06 0.02 0.02 0.04 0.04 0.04 0.04 0.04
0.01 0.00 0.00 0.00 0.01 0.02 0.03 0.04 0.04 0.03 0.02 0.01 0.01 0.01 0.01 0.01 0.01 0.01 0.01 0.00 0.00 0.00 0.00 0.00 0.00 0.00 0.00 0.00 0.00 0.00 0.01 0.03 0.04 0.06 0.11 0.04 0.01 0.01 0.04 0.03 0.03 0.03 0.04
0.02 0.01 0.01 0.00 0.01 0.01 0.02 0.02 0.03 0.03 0.02 0.01 0.01 0.01 0.01 0.01 0.01 0.01 0.01 0.01 0.01 0.01 0.01 0.00 0.00 0.00 0.00 0.00 0.00 0.00 0.00 0.02 0.05 0.14 0.12 0.02 0.01 0.01 0.03 0.03 0.03 0.03 0.04
0.05 0.02 0.01 0.01 0.02 0.03 0.03 0.01 0.01 0.02 0.01 0.01 0.02 0.01 0.01 0.06 0.08 0.08 0.04 0.03 0.01 0.01 0.01 0.01 0.01 0.01 0.01 0.00 0.00 0.00 0.00 0.05 0.13 0.19 0.13 0.02 0.02 0.02 0.02 0.03 0.03 0.03 0.03
0.07 0.09 0.04 0.03 0.01 0.01 0.03 0.04 0.05 0.04 0.03 0.05 0.08 0.05 0.07 0.09 0.11 0.10 0.08 0.05 0.02 0.02 0.02 0.02 0.01 0.01 0.01 0.02 0.03 0.01 0.00 0.02 0.06 0.13 0.07 0.03 0.02 0.03 0.05 0.04 0.03 0.03 0.03
0.09 0.13 0.06 0.04 0.03 0.03 0.05 0.06 0.08 0.09 0.08 0.08 0.09 0.07 0.08 0.06 0.07 0.07 0.09 0.07 0.05 0.04 0.06 0.08 0.04 0.04 0.04 0.08 0.10 0.05 0.01 0.02 0.05 0.06 0.06 0.03 0.02 0.02 0.04 0.03 0.02 0.03 0.04
0.11 0.10 0.07 0.05 0.06 0.07 0.06 0.07 0.06 0.06 0.06 0.08 0.07 0.05 0.05 0.06 0.07 0.09 0.08 0.07 0.08 0.10 0.11 0.10 0.12 0.08 0.09 0.07 0.06 0.07 0.03 0.01 0.04 0.05 0.07 0.04 0.02 0.02 0.03 0.04 0.04 0.03 0.03
0.20 0.15 0.13 0.09 0.09 0.10 0.09 0.07 0.05 0.05 0.05 0.05 0.04 0.03 0.02 0.03 0.05 0.05 0.05 0.04 0.04 0.06 0.08 0.09 0.10 0.11 0.11 0.09 0.06 0.06 0.06 0.03 0.06 0.13 0.11 0.05 0.03 0.03 0.04 0.04 0.05 0.05 0.05
0.24 0.22 0.17 0.10 0.09 0.09 0.07 0.06 0.06 0.04 0.04 0.03 0.02 0.01 0.01 0.01 0.02 0.03 0.04 0.03 0.03 0.03 0.05 0.06 0.09 0.11 0.12 0.11 0.08 0.07 0.05 0.04 0.04 0.06 0.12 0.10 0.05 0.05 0.05 0.06 0.08 0.08 0.07
0.30 0.25 0.17 0.09 0.09 0.09 0.08 0.05 0.04 0.05 0.03 0.02 0.02 0.01 0.00 0.00 0.01 0.01 0.02 0.02 0.02 0.02 0.03 0.03 0.04 0.07 0.08 0.09 0.08 0.07 0.06 0.05 0.07 0.06 0.07 0.09 0.11 0.09 0.07 0.07 0.09 0.09 0.08
0.32 0.24 0.18 0.09 0.10 0.10 0.09 0.07 0.05 0.04 0.02 0.01 0.01 0.01 0.00 0.01 0.00 0.00 0.00 0.00 0.01 0.00 0.01 0.01 0.02 0.04 0.05 0.06 0.07 0.05 0.05 0.04 0.04 0.05 0.04 0.06 0.12 0.13 0.10 0.08 0.07 0.06 0.06
0.31 0.24 0.18 0.15 0.13 0.12 0.08 0.07 0.05 0.03 0.01 0.01 0.01 0.01 0.00 0.00 0.01 0.00 0.00 0.00 0.00 0.00 0.00 0.00 0.01 0.02 0.03 0.03 0.03 0.03 0.02 0.03 0.03 0.04 0.03 0.04 0.07 0.10 0.08 0.07 0.05 0.05 0.08
0.23 0.21 0.15 0.14 0.14 0.11 0.08 0.07 0.04 0.03 0.01 0.00 0.00 0.00 0.00 0.00 0.01 0.00 0.00 0.00 0.00 0.00 0.00 0.01 0.01 0.02 0.02 0.02 0.01 0.02 0.01 0.01 0.01 0.02 0.02 0.03 0.05 0.04 0.05 0.08 0.09 0.06 0.08
0.17 0.14 0.12 0.16 0.15 0.10 0.07 0.05 0.04 0.02 0.01 0.00 0.00 0.00 0.00 0.00 0.00 0.00 0.00 0.00 0.00 0.00 0.01 0.00 0.00 0.01 0.00 0.00 0.00 0.01 0.01 0.00 0.00 0.00 0.01 0.02 0.02 0.02 0.04 0.05 0.06 0.07 0.07
0.16 0.14 0.12 0.14 0.12 0.10 0.08 0.06 0.04 0.02 0.01 0.00 0.00 0.00 0.00 0.00 0.00 0.00 0.00 0.00 0.00 0.00 0.00 0.00 0.00 0.00 0.01 0.00 0.00 0.01 0.01 0.01 0.01 0.00 0.00 0.01 0.01 0.01 0.02 0.02 0.03 0.05 0.05
0.12 0.13 0.13 0.12 0.11 0.11 0.09 0.05 0.03 0.01 0.00 0.00 0.00 0.00 0.00 0.00 0.00 0.00 0.00 0.00 0.00 0.00 0.00 0.00 0.00 0.00 0.00 0.00 0.00 0.00 0.01 0.02 0.02 0.00 0.00 0.00 0.00 0.00 0.00 0.01 0.01 0.03 0.04
0.10 0.10 0.12 0.10 0.10 0.08 0.08 0.06 0.03 0.02 0.01 0.01 0.00 0.00 0.00 0.00 0.00 0.00 0.00 0.00 0.00 0.00 0.00 0.00 0.00 0.00 0.00 0.00 0.00 0.00 0.00 0.01 0.01 0.02 0.01 0.00 0.00 0.00 0.00 0.00 0.01 0.01 0.02
0.09 0.07 0.07 0.07 0.07 0.06 0.06 0.06 0.04 0.02 0.02 0.01 0.00 0.00 0.00 0.00 0.00 0.00 0.00 0.00 0.00 0.00 0.00 0.00 0.00 0.00 0.00 0.00 0.00 0.00 0.00 0.00 0.00 0.00 0.01 0.00 0.00 0.00 0.00 0.00 0.00 0.00 0.01
0.09 0.06 0.04 0.03 0.03 0.04 0.04 0.04 0.03 0.03 0.03 0.02 0.01 0.01 0.00 0.00 0.00 0.00 0.00 0.00 0.00 0.00 0.00 0.00 0.00 0.00 0.00 0.00 0.00 0.00 0.00 0.00 0.00 0.00 0.00 0.00 0.00 0.00 0.00 0.00 0.00 0.00 0.00
MSLP
1009.84 1009.80 1010.08 1010.65 1011.40 1012.18 1012.87 1013.39 1013.71 1013.84 1013.87 1013.89 1013.97 1014.14 1014.42 1014.76 1015.10 1015.40 1015.62 1015.73 1015.77 1015.77 1015.76 1015.79 1015.86 1015.96 1016.08 1016.20 1016.30 1016.37 1016.43 1016.50 1016.59 1016.72 1016.89 1017.09 1017.30 1017.49 1017.65 1017.78 1017.87 1017.95 1018.03
1009.76 1009.86 1010.27 1010.93 1011.73 1012.53 1013.20 1013.68 1013.94 1014.03 1014.04 1014.05 1014.15 1014.36 1014.67 1015.04 1015.41 1015.70 1015.90 1015.98 1015.99 1015.96 1015.94 1015.95 1016.02 1016.13 1016.26 1016.38 1016.48 1016.55 1016.61 1016.67 1016.77 1016.92 1017.12 1017.35 1017.59 1017.82 1018.00 1018.14 1018.24 1018.31 1018.39
1009.58 1009.84 1010.39 1011.16 1012.02 1012.84 1013.51 1013.95 1014.19 1014.26 1014.26 1014.28 1014.40 1014.63 1014.95 1015.32 1015.66 1015.93 1016.08 1016.13 1016.10 1016.05 1016.03 1016.06 1016.14 1016.27 1016.41 1016.53 1016.62 1016.67 1016.71 1016.77 1016.87 1017.03 1017.26 1017.52 1017.80 1018.06 1018.27 1018.43 1018.55 1018.63 1018.72
1009.34 1009.77 1010.46 1011.34 1012.27 1013.11 1013.77 1014.21 1014.43 1014.50 1014.51 1014.56 1014.69 1014.93 1015.25 1015.59 1015.89 1016.10 1016.20 1016.20 1016.15 1016.10 1016.09 1016.15 1016.26 1016.41 1016.56 1016.67 1016.73 1016.75 1016.76 1016.79 1016.89 1017.06 1017.31 1017.61 1017.93 1018.22 1018.47 1018.66 1018.80 1018.91 1019.02
1009.12 1009.71 1010.53 1011.50 1012.48 1013.34 1014.00 1014.43 1014.65 1014.74 1014.77 1014.85 1015.00 1015.25 1015.55 1015.85 1016.09 1016.24 1016.28 1016.25 1016.19 1016.16 1016.18 1016.27 1016.42 1016.58 1016.72 1016.81 1016.83 1016.80 1016.77 1016.77 1016.85 1017.03 1017.30 1017.64 1017.99 1018.33 1018.62 1018.85 1019.02 1019.16 1019.30
1009.02 1009.74 1010.65 1011.68 1012.67 1013.53 1014.18 1014.60 1014.83 1014.93 1015.00 1015.10 1015.28 1015.53 1015.80 1016.06 1016.25 1016.35 1016.35 1016.30 1016.26 1016.25 1016.31 1016.45 1016.62 1016.79 1016.91 1016.96 1016.92 1016.83 1016.74 1016.71 1016.77 1016.95 1017.25 1017.62 1018.02 1018.41 1018.74 1019.00 1019.20 1019.38 1019.55
1009.09 1009.88 1010.84 1011.88 1012.86 1013.69 1014.30 1014.70 1014.93 1015.05 1015.15 1015.28 1015.48 1015.73 1015.99 1016.21 1016.36 1016.42 1016.40 1016.36 1016.34 1016.38 1016.49 1016.67 1016.86 1017.03 1017.12 1017.11 1017.00 1016.85 1016.70 1016.62 1016.67 1016.86 1017.18 1017.60 1018.04 1018.47 1018.84 1019.14 1019.38 1019.58 1019.79
1009.33 1010.13 1011.09 1012.09 1013.01 1013.78 1014.35 1014.72 1014.94 1015.07 1015.20 1015.36 1015.57 1015.82 1016.07 1016.27 1016.39 1016.43 1016.41 1016.39 1016.41 1016.50 1016.66 1016.88 1017.10 1017.25 1017.31 1017.24 1017.06 1016.84 1016.64 1016.53 1016.56 1016.77 1017.12 1017.57 1018.06 1018.53 1018.94 1019.27 1019.54 1019.77 1020.00
1009.67 1010.44 1011.34 1012.27 1013.11 1013.80 1014.30 1014.63 1014.83 1014.98 1015.12 1015.31 1015.55 1015.80 1016.04 1016.22 1016.33 1016.36 1016.36 1016.37 1016.43 1016.57 1016.79 1017.04 1017.27 1017.41 1017.43 1017.31 1017.09 1016.81 1016.57 1016.44 1016.47 1016.69 1017.07 1017.56 1018.09 1018.59 1019.04 1019.40 1019.68 1019.93 1020.18
1010.00 1010.72 1011.54 1012.37 1013.11 1013.71 1014.15 1014.44 1014.63 1014.79 1014.96 1015.17 1015.42 1015.68 1015.91 1016.08 1016.18 1016.21 1016.22 1016.26 1016.36 1016.55 1016.81 1017.09 1017.33 1017.47 1017.47 1017.33 1017.07 1016.77 1016.51 1016.36 1016.40 1016.63 1017.03 1017.55 1018.11 1018.65 1019.11 1019.50 1019.80 1020.07 1020.32
1010.25 1010.89 1011.63 1012.36 1013.01 1013.53 1013.91 1014.18 1014.37 1014.54 1014.74 1014.98 1015.25 1015.51 1015.73 1015.89 1015.97 1016.00 1016.02 1016.07 1016.20 1016.42 1016.71 1017.01 1017.27 1017.43 1017.43 1017.28 1017.02 1016.72 1016.46 1016.32 1016.36 1016.60 1017.01 1017.54 1018.11 1018.67 1019.15 1019.56 1019.88 1020.16 1020.42
1010.36 1010.94 1011.60 1012.25 1012.82 1013.29 1013.64 1013.89 1014.10 1014.30 1014.53 1014.79 1015.07 1015.34 1015.55 1015.69 1015.75 1015.77 1015.78 1015.84 1015.98 1016.21 1016.51 1016.84 1017.12 1017.29 1017.32 1017.20 1016.97 1016.69 1016.45 1016.33 1016.37 1016.61 1017.01 1017.53 1018.09 1018.64 1019.14 1019.55 1019.90 1020.19 1020.47
1010.36 1010.90 1011.50 1012.09 1012.61 1013.04 1013.38 1013.65 1013.88 1014.12 1014.39 1014.68 1014.97 1015.23 1015.43 1015.55 1015.59 1015.58 1015.57 1015.62 1015.75 1015.98 1016.28 1016.62 1016.92 1017.12 1017.19 1017.12 1016.94 1016.71 1016.51 1016.40 1016.45 1016.66 1017.03 1017.51 1018.04 1018.57 1019.05 1019.48 1019.84 1020.16 1020.46
1010.31 1010.83 1011.40 1011.95 1012.45 1012.87 1013.21 1013.51 1013.78 1014.06 1014.36 1014.68 1014.98 1015.24 1015.42 1015.51 1015.52 1015.49 1015.45 1015.47 1015.58 1015.79 1016.08 1016.41 1016.73 1016.97 1017.09 1017.09 1016.98 1016.81 1016.65 1016.56 1016.58 1016.76 1017.06 1017.47 1017.94 1018.43 1018.89 1019.32 1019.70 1020.05 1020.38
1010.32 1010.85 1011.40 1011.93 1012.41 1012.83 1013.19 1013.52 1013.83 1014.15 1014.48 1014.81 1015.12 1015.37 1015.53 1015.60 1015.59 1015.53 1015.47 1015.46 1015.54 1015.71 1015.98 1016.30 1016.62 1016.89 1017.07 1017.13 1017.09 1016.98 1016.87 1016.79 1016.79 1016.90 1017.12 1017.43 1017.82 1018.24 1018.66 1019.08 1019.48 1019.86 1020.23
1010.49 1011.02 1011.55 1012.07 1012.54 1012.96 1013.33 1013.68 1014.03 1014.37 1014.72 1015.06 1015.36 1015.60 1015.75 1015.81 1015.79 1015.72 1015.64 1015.61 1015.65 1015.80 1016.03 1016.32 1016.64 1016.92 1017.14 1017.26 1017.28 1017.24 1017.16 1017.08 1017.04 1017.08 1017.20 1017.41 1017.69 1018.02 1018.39 1018.79 1019.19 1019.60 1020.01
1010.83 1011.35 1011.87 1012.36 1012.81 1013.22 1013.60 1013.97 1014.33 1014.69 1015.04 1015.38 1015.67 1015.90 1016.04 1016.10 1016.08 1016.02 1015.94 1015.90 1015.93 1016.04 1016.23 1016.49 1016.78 1017.06 1017.29 1017.45 1017.53 1017.54 1017.49 1017.41 1017.34 1017.30 1017.33 1017.42 1017.58 1017.82 1018.12 1018.47 1018.87 1019.30 1019.74
1011.32 1011.82 1012.30 1012.74 1013.16 1013.56 1013.94 1014.31 1014.67 1015.03 1015.37 1015.69 1015.97 1016.19 1016.33 1016.40 1016.41 1016.37 1016.32 1016.29 1016.31 1016.40 1016.55 1016.77 1017.02 1017.28 1017.51 1017.69 1017.81 1017.85 1017.83 1017.76 1017.66 1017.56 1017.49 1017.47 1017.52 1017.66 1017.88 1018.18 1018.56 1018.98 1019.42
1011.87 1012.32 1012.74 1013.14 1013.51 1013.88 1014.25 1014.61 1014.97 1015.32 1015.65 1015.95 1016.21 1016.42 1016.57 1016.66 1016.71 1016.72 1016.71 1016.72 1016.75 1016.83 1016.95 1017.12 1017.32 1017.54 1017.76 1017.94 1018.08 1018.15 1018.15 1018.09 1017.98 1017.84 1017.70 1017.59 1017.55 1017.58 1017.72 1017.95 1018.28 1018.68 1019.11
1012.37 1012.76 1013.11 1013.44 1013.77 1014.12 1014.47 1014.83 1015.19 1015.53 1015.84 1016.12 1016.36 1016.56 1016.72 1016.84 1016.93 1017.00 1017.06 1017.12 1017.18 1017.26 1017.36 1017.49 1017.65 1017.82 1018.00 1018.17 1018.31 1018.40 1018.43 1018.40 1018.29 1018.14 1017.96 1017.79 1017.66 1017.61 1017.66 1017.82 1018.09 1018.44 1018.83
1012.75 1013.05 1013.32 1013.59 1013.89 1014.21 1014.56 1014.93 1015.30 1015.64 1015.94 1016.21 1016.43 1016.61 1016.78 1016.92 1017.07 1017.20 1017.33 1017.45 1017.55 1017.65 1017.74 1017.84 1017.95 1018.07 1018.21 1018.35 1018.49 1018.60 1018.66 1018.66 1018.59 1018.45 1018.26 1018.06 1017.88 1017.76 1017.73 1017.81 1018.00 1018.28 1018.63
1012.95 1013.18 1013.38 1013.59 1013.85 1014.17 1014.54 1014.93 1015.31 1015.67 1015.97 1016.22 1016.43 1016.60 1016.76 1016.93 1017.11 1017.30 1017.49 1017.67 1017.83 1017.96 1018.06 1018.14 1018.21 1018.28 1018.38 1018.50 1018.63 1018.75 1018.84 1018.89 1018.86 1018.75 1018.58 1018.38 1018.17 1018.00 1017.91 1017.91 1018.02 1018.23 1018.51
1013.02 1013.18 1013.31 1013.48 1013.72 1014.05 1014.44 1014.86 1015.28 1015.66 1015.98 1016.22 1016.41 1016.56 1016.71 1016.88 1017.08 1017.31 1017.56 1017.80 1018.01 1018.18 1018.30 1018.37 1018.41 1018.46 1018.52 1018.60 1018.72 1018.86 1018.98 1019.06 1019.09 1019.03 1018.90 1018.72 1018.51 1018.31 1018.17 1018.11 1018.14 1018.28 1018.49
1013.03 1013.13 1013.21 1013.35 1013.57 1013.91 1014.33 1014.80 1015.26 1015.67 1016.00 1016.24 1016.40 1016.53 1016.65 1016.81 1017.01 1017.26 1017.55 1017.84 1018.10 1018.31 1018.45 1018.53 1018.57 1018.59 1018.63 1018.69 1018.80 1018.93 1019.08 1019.20 1019.27 1019.27 1019.19 1019.04 1018.84 1018.64 1018.47 1018.36 1018.33 1018.40 1018.54
1013.06 1013.11 1013.15 1013.26 1013.48 1013.83 1014.27 1014.77 1015.27 1015.71 1016.05 1016.28 1016.43 1016.52 1016.61 1016.74 1016.93 1017.18 1017.48 1017.80 1018.11 1018.36 1018.54 1018.64 1018.69 1018.71 1018.73 1018.78 1018.87 1019.00 1019.15 1019.30 1019.40 1019.45 1019.41 1019.30 1019.14 1018.94 1018.76 1018.62 1018.54 1018.55 1018.63
1013.14 1013.16 1013.17 1013.26 1013.46 1013.81 1014.27 1014.79 1015.30 1015.76 1016.11 1016.33 1016.46 1016.52 1016.58 1016.67 1016.82 1017.06 1017.37 1017.71 1018.05 1018.34 1018.56 1018.70 1018.77 1018.80 1018.82 1018.85 1018.93 1019.05 1019.19 1019.35 1019.48 1019.55 1019.56 1019.49 1019.35 1019.18 1018.99 1018.84 1018.73 1018.69 1018.73
Thickness
5812 5805 5799 5795 5792 5790 5787 5785 5783 5780 5778 5775 5774 5772 5771 5770 5769 5767 5766 5765 5763 5762 5761 5760 5758 5758 5756 5755 5755 5754 5752 5751 5750 5749 5747 5746 5744 5743 5741 5740 5740 5740 5739
5813 5803 5797 5793 5790 5788 5785 5783 5780 5778 5776 5773 5771 5770 5769 5768 5767 5765 5764 5763 5761 5760 5759 5757 5756 5755 5755 5754 5753 5752 5751 5750 5748 5747 5745 5744 5742 5741 5740 5739 5739 5738 5737
5810 5801 5794 5791 5788 5785 5782 5780 5778 5775 5773 5771 5769 5768 5766 5765 5764 5763 5762 5761 5759 5758 5757 5756 5754 5753 5753 5752 5752 5751 5750 5748 5747 5745 5743 5742 5740 5739 5738 5737 5737 5736 5735
5807 5799 5793 5788 5785 5782 5780 5778 5775 5773 5771 5768 5767 5765 5764 5763 5762 5761 5760 5758 5757 5756 5755 5754 5753 5752 5751 5750 5750 5750 5749 5747 5746 5745 5744 5742 5740 5737 5736 5736 5735 5734 5734
5804 5797 5790 5786 5782 5780 5777 5775 5773 5770 5768 5766 5764 5763 5762 5760 5759 5758 5757 5756 5755 5754 5752 5751 5751 5750 5749 5749 5749 5748 5748 5747 5747 5746 5744 5742 5739 5736 5735 5734 5733 5733 5732
5800 5794 5787 5783 5780 5778 5775 5772 5770 5768 5766 5764 5762 5761 5759 5758 5757 5756 5754 5753 5752 5751 5750 5749 5748 5747 5747 5747 5747 5747 5747 5747 5748 5747 5744 5741 5738 5736 5734 5733 5732 5731 5731
5799 5792 5784 5781 5778 5775 5772 5770 5768 5766 5764 5762 5760 5759 5757 5756 5754 5753 5752 5751 5750 5748 5747 5747 5746 5745 5745 5745 5745 5746 5746 5747 5748 5747 5743 5739 5737 5735 5734 5732 5731 5730 5730
5798 5790 5781 5778 5775 5773 5770 5768 5766 5764 5762 5760 5759 5757 5755 5754 5753 5751 5750 5749 5747 5746 5745 5744 5744 5743 5743 5743 5743 5744 5745 5745 5748 5747 5743 5738 5736 5734 5733 5731 5730 5729 5728
5796 5788 5780 5776 5773 5770 5768 5766 5764 5762 5760 5759 5757 5755 5754 5752 5751 5750 5749 5747 5746 5745 5743 5743 5742 5742 5741 5741 5742 5742 5743 5744 5745 5743 5740 5737 5734 5733 5731 5730 5729 5727 5727
5793 5787 5780 5776 5772 5769 5766 5763 5762 5760 5759 5757 5755 5754 5753 5752 5751 5749 5747 5746 5744 5743 5742 5741 5740 5740 5740 5740 5740 5741 5742 5742 5743 5741 5737 5734 5733 5732 5730 5729 5728 5727 5726
5786 5784 5781 5777 5772 5770 5767 5763 5761 5759 5757 5755 5754 5752 5752 5751 5750 5748 5747 5745 5744 5742 5741 5740 5739 5739 5738 5738 5739 5739 5740 5740 5740 5739 5735 5733 5732 5731 5729 5728 5726 5725 5724
5777 5780 5780 5777 5773 5771 5769 5763 5761 5759 5757 5755 5753 5752 5752 5751 5750 5749 5746 5745 5743 5742 5741 5739 5739 5738 5738 5739 5738 5738 5740 5741 5740 5737 5733 5733 5732 5731 5729 5727 5725 5724 5723
5775 5775 5776 5775 5773 5770 5767 5763 5762 5760 5757 5755 5753 5752 5751 5751 5750 5748 5745 5743 5742 5741 5741 5739 5739 5739 5739 5739 5739 5738 5740 5741 5738 5736 5732 5732 5731 5730 5728 5726 5724 5723 5722
5772 5771 5772 5771 5768 5767 5766 5763 5761 5759 5756 5754 5752 5751 5750 5749 5748 5746 5744 5742 5742 5742 5741 5740 5739 5739 5738 5738 5738 5738 5739 5739 5738 5735 5732 5732 5730 5729 5727 5725 5723 5722 5721
5765 5764 5765 5765 5763 5762 5761 5760 5759 5757 5755 5753 5750 5748 5748 5748 5746 5745 5742 5741 5741 5741 5740 5739 5738 5738 5737 5737 5737 5737 5737 5737 5736 5733 5731 5731 5730 5728 5726 5724 5722 5721 5720
5756 5757 5758 5759 5758 5757 5756 5755 5755 5754 5753 5751 5748 5746 5745 5745 5742 5742 5741 5740 5740 5739 5738 5737 5737 5736 5736 5735 5735 5735 5735 5734 5733 5732 5730 5728 5727 5726 5725 5724 5722 5720 5719
5751 5753 5753 5754 5754 5753 5752 5752 5752 5752 5751 5749 5745 5743 5742 5742 5740 5740 5740 5739 5738 5738 5737 5736 5736 5735 5735 5734 5733 5734 5733 5733 5732 5730 5729 5728 5726 5724 5723 5723 5721 5720 5719
5749 5747 5749 5752 5749 5748 5748 5749 5749 5749 5748 5746 5743 5741 5739 5738 5738 5738 5738 5737 5736 5737 5737 5736 5735 5734 5733 5732 5732 5732 5732 5731 5731 5730 5729 5729 5726 5724 5723 5722 5721 5720 5719
5745 5743 5744 5746 5744 5744 5744 5745 5744 5744 5743 5743 5741 5739 5737 5736 5736 5736 5735 5734 5735 5736 5736 5735 5733 5731 5730 5730 5731 5731 5731 5730 5730 5730 5730 5729 5727 5725 5724 5722 5721 5720 5719
5742 5741 5740 5740 5739 5740 5740 5740 5740 5740 5740 5740 5738 5736 5735 5734 5734 5734 5734 5733 5734 5734 5733 5731 5730 5730 5729 5729 5730 5730 5730 5731 5730 5729 5729 5729 5728 5726 5725 5723 5721 5720 5719
5738 5736 5736 5735 5734 5736 5736 5736 5734 5734 5736 5737 5736 5734 5733 5733 5732 5732 5734 5732 5732 5731 5730 5730 5729 5729 5728 5729 5726 5725 5728 5731 5730 5729 5729 5728 5728 5727 5726 5724 5722 5720 5719
5734 5734 5733 5732 5732 5734 5734 5735 5735 5735 5735 5736 5735 5732 5732 5732 5731 5732 5731 5732 5730 5729 5729 5729 5727 5726 5729 5729 5724 5721 5719 5720 5725 5730 5728 5726 5726 5726 5725 5724 5722 5721 5719
5731 5731 5732 5731 5731 5733 5733 5733 5734 5733 5733 5733 5731 5731 5732 5731 5730 5729 5729 5730 5729 5730 5727 5727 5726 5725 5724 5727 5727 5722 5716 5713 5717 5723 5725 5724 5724 5723 5724 5724 5722 5721 5719
5731 5732 5732 5730 5730 5731 5731 5731 5730 5728 5729 5732 5733 5732 5731 5730 5730 5729 5728 5728 5728 5728 5726 5727 5725 5726 5723 5723 5725 5725 5722 5719 5714 5712 5717 5721 5722 5721 5721 5722 5720 5719 5717
5734 5733 5731 5729 5728 5729 5730 5731 5730 5731 5732 5734 5734 5731 5730 5730 5730 5729 5728 5727 5727 5726 5725 5725 5724 5724 5724 5721 5722 5723 5722 5721 5720 5713 5710 5713 5717 5719 5719 5718 5718 5716 5715
5736 5734 5732 5729 5728 5729 5730 5731 5730 5731 5732 5732 5731 5729 5729 5730 5730 5729 5728 5727 5726 5725 5725 5724 5723 5722 5721 5720 5719 5720 5719 5717 5715 5714 5710 5710 5712 5715 5717 5717 5715 5714 5713